Location: Clarion
(42.7316°N, 93.7330°W)
Time: 08:21:05
(UTC+00:00)

Meteor 2-10 Rocket - Pass Details

Date: 22 April 2026
Orbit: 732 x 882 km, 81.2° (Epoch: 17 May)

Event Time Altitude Azimuth Distance (km) Brightness Sun altitude
Rises 09:22:20 0° 355° (N) 3,200 7.2 -20.1°
Reaches altitude 10° 09:24:44 10° 0° (N) 2,286 6.5 -19.7°
Maximum altitude 09:29:43 50° 76° (ENE) 981 4.4 -19.0°
Drops below altitude 10° 09:34:51 10° 152° (SSE) 2,356 5.9 -18.3°
Sets 09:37:20 0° 157° (SSE) 3,306 6.6 -17.9°
